Time,TemperatureF,DewpointF,PressureIn,WindDirection,WindDirectionDegrees,WindSpeedMPH,WindSpeedGustMPH,Humidity,HourlyPrecipIn,Conditions,Clouds,dailyrainin,SoftwareType,DateUTC
2013-11-14 00:00:00,19.6,15.3,29.90,NNW,340,2.0,2.0,83,0.00,,,0.00,Wunderground v.1.13,2013-11-14 05:00:00,
2013-11-14 00:30:00,20.2,16.1,29.89,NNW,338,1.0,1.0,84,0.00,,,0.00,Wunderground v.1.13,2013-11-14 05:30:00,
2013-11-14 01:00:00,20.6,16.3,29.89,NW,305,3.0,3.0,83,0.00,,,0.00,Wunderground v.1.13,2013-11-14 06:00:00,
2013-11-14 01:30:00,20.8,17.0,29.88,NNW,327,2.0,3.0,85,0.00,,,0.00,Wunderground v.1.13,2013-11-14 06:30:00,
2013-11-14 02:30:00,21.5,17.7,29.85,North,350,3.0,3.0,85,0.00,,,0.00,Wunderground v.1.13,2013-11-14 07:30:00,
2013-11-14 03:00:00,21.8,18.3,29.84,NW,313,2.0,5.0,86,0.00,,,0.00,Wunderground v.1.13,2013-11-14 08:00:00,
2013-11-14 04:00:00,23.3,19.7,29.83,WNW,289,4.0,4.0,86,0.00,,,0.00,Wunderground v.1.13,2013-11-14 09:00:00,
2013-11-14 04:30:00,23.9,20.3,29.82,NW,313,4.0,4.0,86,0.00,,,0.00,Wunderground v.1.13,2013-11-14 09:30:00,
2013-11-14 05:30:00,25.2,21.6,29.81,NW,321,3.0,3.0,86,0.00,,,0.00,Wunderground v.1.13,2013-11-14 10:30:00,
2013-11-14 06:30:00,26.0,22.7,29.82,NNW,332,2.0,2.0,87,0.00,,,0.00,Wunderground v.1.13,2013-11-14 11:30:00,
2013-11-14 07:00:00,27.0,23.4,29.82,North,360,3.0,3.0,86,0.00,,,0.00,Wunderground v.1.13,2013-11-14 12:00:00,
2013-11-14 07:30:00,27.7,24.3,29.83,NNW,330,1.0,3.0,87,0.00,,,0.00,Wunderground v.1.13,2013-11-14 12:30:00,
2013-11-14 08:00:00,28.4,24.7,29.83,North,351,2.0,2.0,86,0.00,,,0.00,Wunderground v.1.13,2013-11-14 13:00:00,
2013-11-14 08:30:00,29.0,25.3,29.83,NNW,342,3.0,3.0,86,0.00,,,0.00,Wunderground v.1.13,2013-11-14 13:30:00,
2013-11-14 09:00:00,29.5,25.8,29.83,NNW,332,1.0,1.0,86,0.00,,,0.00,Wunderground v.1.13,2013-11-14 14:00:00,
2013-11-14 09:30:00,30.5,26.8,29.84,WNW,288,1.0,1.0,86,0.00,,,0.00,Wunderground v.1.13,2013-11-14 14:30:00,
2013-11-14 10:36:00,33.6,29.0,29.83,ESE,109,2.0,5.0,83,0.00,,,0.00,Wunderground v.1.13,2013-11-14 15:36:00,
2013-11-14 11:00:00,34.0,29.1,29.82,NW,312,2.0,2.0,82,0.00,,,0.00,Wunderground v.1.13,2013-11-14 16:00:00,
2013-11-14 11:30:00,34.6,29.4,29.83,SE,131,2.0,2.0,81,0.00,,,0.00,Wunderground v.1.13,2013-11-14 16:30:00,
2013-11-14 12:30:00,35.2,29.6,29.83,ENE,70,2.0,5.0,80,0.00,,,0.00,Wunderground v.1.13,2013-11-14 17:30:00,
2013-11-14 13:00:00,35.4,29.8,29.83,North,0,3.0,13.0,80,0.00,,,0.00,Wunderground v.1.13,2013-11-14 18:00:00,
2013-11-14 13:30:00,35.5,29.9,29.83,NE,45,3.0,8.0,80,0.00,,,0.00,Wunderground v.1.13,2013-11-14 18:30:00,
2013-11-14 14:00:00,35.5,29.9,29.84,ENE,63,2.0,5.0,80,0.00,,,0.00,Wunderground v.1.13,2013-11-14 19:00:00,
2013-11-14 14:30:00,35.5,30.2,29.85,ESE,104,3.0,5.0,81,0.00,,,0.00,Wunderground v.1.13,2013-11-14 19:30:00,
2013-11-14 15:30:00,35.2,30.0,29.87,NNW,342,2.0,2.0,81,0.00,,,0.00,Wunderground v.1.13,2013-11-14 20:30:00,
2013-11-14 17:12:00,35.0,30.1,29.90,NNW,331,1.0,10.0,82,0.00,,,0.00,Wunderground v.1.13,2013-11-14 22:12:00,
2013-11-14 17:30:00,35.0,30.1,29.90,NNW,340,1.0,3.0,82,0.00,,,0.00,Wunderground v.1.13,2013-11-14 22:30:00,
2013-11-14 18:00:00,35.0,30.1,29.91,NNE,22,1.0,1.0,82,0.00,,,0.00,Wunderground v.1.13,2013-11-14 23:00:00,
2013-11-14 18:30:00,34.9,30.0,29.92,NNW,344,1.0,1.0,82,0.00,,,0.00,Wunderground v.1.13,2013-11-14 23:30:00,
2013-11-14 19:00:00,34.9,30.3,29.92,NE,45,1.0,6.0,83,0.00,,,0.00,Wunderground v.1.13,2013-11-15 00:00:00,
2013-11-14 19:30:00,35.0,30.4,29.93,ENE,67,1.0,1.0,83,0.00,,,0.00,Wunderground v.1.13,2013-11-15 00:30:00,
2013-11-14 20:30:00,35.4,30.8,29.94,ENE,78,1.0,1.0,83,0.00,,,0.00,Wunderground v.1.13,2013-11-15 01:30:00,
2013-11-14 21:00:00,35.5,30.8,29.94,North,350,1.0,1.0,83,0.00,,,0.00,Wunderground v.1.13,2013-11-15 02:00:00,
2013-11-14 21:30:00,35.6,30.9,29.94,North,0,1.0,6.0,83,0.00,,,0.00,Wunderground v.1.13,2013-11-15 02:30:00,
2013-11-14 22:00:00,35.7,31.0,29.95,NNW,346,1.0,1.0,83,0.00,,,0.00,Wunderground v.1.13,2013-11-15 03:00:00,
2013-11-14 22:30:00,36.0,31.0,29.95,North,0,1.0,8.0,82,0.00,,,0.00,Wunderground v.1.13,2013-11-15 03:30:00,
2013-11-14 23:00:00,35.9,31.2,29.95,NNW,331,1.0,1.0,83,0.00,,,0.00,Wunderground v.1.13,2013-11-15 04:00:00,
2013-11-14 23:30:00,35.3,31.2,29.96,NNW,338,0.0,0.0,85,0.00,,,0.00,Wunderground v.1.13,2013-11-15 04:30:00,